Weather History for KVLD - February, 2013

Change the Weather History Date:

Friday, February 22, 2013

  Actual Average Record
Temperature  
Mean Temperature 68 °F 56 °F  
Max Temperature 75 °F 69 °F 77 °F (2015)
Min Temperature 60 °F 43 °F 49 °F (2015)
Degree Days  
Heating Degree Days 0 10  
Month to date heating degree days 216 257  
Since 1 July heating degree days 845 1326  
Cooling Degree Days 2    
Growing Degree Days 18 (Base 50)    
Moisture  
Dew Point 60 °F    
Average Humidity 77    
Maximum Humidity 93    
Minimum Humidity 60    
Precipitation  
Precipitation 0.56 in 0.21 in 0.00 in (2015)
Month to date precipitation 1.27 2.80  
Year to date precipitation 2.03 7.37  
Sea Level Pressure  
Sea Level Pressure 30.05 in    
Wind  
Wind Speed 5 mph (SE)    
Max Wind Speed 15 mph    
Max Gust Speed 20 mph    
Visibility 5 miles    
Events Rain , Thunderstorm    
T = Trace of Precipitation, MM = Missing Value Source: NWS Daily Summary

Daily Weather History Graph

Daily Weather History Graph

Search for Another Location

Airport or City:

Trip Planner

Search our weather history database for the weather conditions in past years. The results will help you decide how hot, cold, wet, or windy it might be!

Date:

Astronomy

Feb. 22, 2013 Rise Set
Actual Time 7:06 AM EST 6:26 PM EST
Civil Twilight 6:42 AM EST 6:51 PM EST
Nautical Twilight 6:14 AM EST 7:19 PM EST
Astronomical Twilight 5:46 AM EST 7:47 PM EST
Moon 3:44 PM EST (2/22) 4:42 AM EST (2/22)
Length of Visible Light 12h 08m
Length of Day
11h 19m
Waxing Gibbous, 90% of the Moon is Illuminated
Feb 22
Waxing Gibbous
Feb 25
Full
Mar 4
Last Quarter
Mar 11
New
Mar 19
First Quarter

Hourly Weather History & Observations

Time (EST) Temp. Dew Point Humidity Pressure Visibility Wind Dir Wind Speed Gust Speed Precip Events Conditions
12:53 AM 61.0 °F 50.0 °F 67% 30.06 in 10.0 mi SE 6.9 mph - N/A   Clear
1:53 AM 61.0 °F 50.0 °F 67% 30.06 in 10.0 mi SSE 5.8 mph - N/A   Overcast
2:53 AM 61.0 °F 51.1 °F 70% 30.04 in 10.0 mi SE 5.8 mph - N/A   Mostly Cloudy
3:53 AM 62.1 °F 53.1 °F 72% 30.04 in 10.0 mi SSE 4.6 mph - N/A   Overcast
4:53 AM 61.0 °F 53.1 °F 75% 30.04 in 10.0 mi SSE 3.5 mph - N/A   Overcast
5:53 AM 61.0 °F 54.0 °F 78% 30.05 in 10.0 mi Calm Calm - N/A   Mostly Cloudy
6:53 AM 61.0 °F 54.0 °F 78% 30.06 in 10.0 mi SE 3.5 mph - N/A   Overcast
7:27 AM 60.8 °F 55.4 °F 82% 30.05 in 10.0 mi Calm Calm - N/A   Overcast
7:53 AM 61.0 °F 55.0 °F 81% 30.07 in 10.0 mi SSE 3.5 mph - N/A   Scattered Clouds
8:17 AM 62.6 °F 55.4 °F 77% 30.05 in 10.0 mi SSE 3.5 mph - N/A   Mostly Cloudy
8:53 AM 64.0 °F 57.0 °F 78% 30.09 in 10.0 mi South 4.6 mph - N/A   Mostly Cloudy
9:53 AM 69.1 °F 60.1 °F 73% 30.06 in 10.0 mi South 12.7 mph - N/A   Mostly Cloudy
11:53 AM 75.0 °F 60.1 °F 60% 30.09 in 10.0 mi Calm Calm - N/A   Mostly Cloudy
12:53 PM 73.0 °F 61.0 °F 66% 30.09 in 10.0 mi Calm Calm - N/A   Overcast
1:53 PM 66.9 °F 63.0 °F 87% 30.10 in 3.0 mi North 3.5 mph - 0.05 in Rain Rain
1:56 PM 66.2 °F 62.6 °F 88% 30.08 in 2.5 mi North 3.5 mph - 0.01 in Rain Rain
2:13 PM 66.2 °F 64.4 °F 94% 30.09 in 1.0 mi North 4.6 mph - 0.11 in Rain Heavy Rain
2:19 PM 66.2 °F 62.6 °F 88% 30.07 in 0.8 mi North 13.8 mph - 0.14 in Rain Heavy Rain
2:26 PM 66.2 °F 62.6 °F 88% 30.06 in 1.0 mi North 8.1 mph - 0.16 in Rain Heavy Rain
2:36 PM 66.2 °F 64.4 °F 94% 30.06 in 2.0 mi North 8.1 mph - 0.17 in Rain Rain
2:53 PM 66.9 °F 63.0 °F 87% 30.07 in 1.8 mi SSE 4.6 mph - 0.21 in Rain Heavy Rain
3:30 PM 66.2 °F 62.6 °F 88% 30.05 in 1.8 mi South 6.9 mph - 0.04 in Rain , Thunderstorm Thunderstorms and Rain
3:41 PM 66.2 °F 62.6 °F 88% 30.04 in 2.0 mi South 4.6 mph - 0.05 in Rain , Thunderstorm Thunderstorms and Rain
3:53 PM 66.9 °F 64.0 °F 90% 30.05 in 2.0 mi South 6.9 mph - 0.06 in Rain , Thunderstorm Thunderstorms and Rain
4:11 PM 66.2 °F 62.6 °F 88% 30.03 in 3.0 mi South 9.2 mph - 0.02 in Rain Rain
4:18 PM 66.2 °F 62.6 °F 88% 30.03 in 2.5 mi South 4.6 mph - 0.02 in Rain Rain
4:48 PM 66.2 °F 62.6 °F 88% 30.03 in 1.8 mi South 5.8 mph - 0.05 in Rain Heavy Rain
4:53 PM 66.9 °F 64.0 °F 90% 30.05 in 2.0 mi South 5.8 mph - 0.05 in Rain Rain
5:53 PM 66.9 °F 63.0 °F 87% 30.06 in 2.5 mi SSE 6.9 mph - N/A Rain Rain
5:56 PM 66.2 °F 62.6 °F 88% 30.04 in 3.0 mi South 6.9 mph - 0.00 in Rain Rain
6:00 PM 66.2 °F 62.6 °F 88% 30.05 in 1.8 mi SSE 5.8 mph - 0.00 in Rain Heavy Rain
6:10 PM 66.2 °F 62.6 °F 88% 30.05 in 3.0 mi SSE 5.8 mph - N/A Rain Heavy Rain
6:29 PM 66.2 °F 62.6 °F 88% 30.04 in 2.0 mi SE 6.9 mph - N/A Rain Heavy Rain
6:51 PM 66.2 °F 62.6 °F 88% 30.05 in 8.0 mi SSE 4.6 mph - N/A Rain Light Rain
6:53 PM 66.0 °F 62.1 °F 87% 30.06 in 8.0 mi SE 5.8 mph - N/A Rain Light Rain
7:53 PM 64.9 °F 61.0 °F 87% 30.08 in 4.0 mi South 10.4 mph - 0.03 in Rain Heavy Rain
8:13 PM 64.4 °F 62.6 °F 94% 30.06 in 2.0 mi Calm Calm - 0.01 in Rain Heavy Rain
8:23 PM 64.4 °F 60.8 °F 88% 30.05 in 3.0 mi Calm Calm - 0.02 in Rain Rain
8:53 PM 64.9 °F 62.1 °F 90% 30.06 in 3.0 mi East 5.8 mph - 0.03 in Rain Heavy Rain
9:15 PM 64.4 °F 62.6 °F 94% 30.04 in 2.5 mi East 4.6 mph - N/A Rain Heavy Rain
9:22 PM 64.4 °F 62.6 °F 94% 30.03 in 4.0 mi ESE 6.9 mph - N/A Rain Heavy Rain
9:35 PM 66.2 °F 62.6 °F 88% 30.03 in 2.5 mi ESE 6.9 mph - N/A Rain Heavy Rain
9:53 PM 66.0 °F 63.0 °F 90% 30.05 in 2.5 mi ESE 8.1 mph - N/A Rain Rain
10:53 PM 66.9 °F 63.0 °F 87% 30.02 in 2.5 mi East 3.5 mph - 0.03 in Rain Light Rain
11:00 PM 66.2 °F 62.6 °F 88% 29.99 in 7.0 mi ESE 5.8 mph - 0.00 in Rain Light Rain
11:50 PM 66.2 °F 62.6 °F 88% 29.97 in 8.0 mi ESE 8.1 mph - 0.02 in Rain Light Rain
11:53 PM 66.9 °F 63.0 °F 87% 30.00 in 8.0 mi SE 9.2 mph - 0.02 in Rain Light Rain